Date String (YYYY-MM-DD hh:mm:ss) UTC,Instrument flags,Ambient pressure (hPa),Sample flow (lpm),Bypass flow (lpm),Sample temperature (°C),Ambient temperature (°C),ASC tube jacket temperature (°C),LED temperature (°C),Box temperature (°C),Sample RH (%),Span deviation,Mass concentration (μg/m³),Mass concentration (μg/m³),Mass concentration (μg/m³)
DateTimeUTC,F1_M11,P_M11,Q1_M11,Q2_M11,T1_M11,T2_M11,T3_M11,T4_M11,T5_M11,U1_M11,ZSPAN_M11,X0_M11,X2_M11,X1_M11
2023-02-23 06:00:00,,0815.7,4.99,0.00,22.4,20.4,00.0,31.3,23.8,03.4,0000.0,0006.44,0003.15,0002.61
2023-02-23 06:01:00,,0815.8,5.02,0.00,22.4,21.0,00.0,31.2,23.9,03.4,0000.0,0006.52,0003.15,0002.55
2023-02-23 06:02:00,,0815.9,5.00,0.00,22.5,22.1,00.0,31.2,24.2,03.4,0000.0,0005.60,0003.12,0002.47
2023-02-23 06:03:00,,0815.9,5.01,0.00,22.6,23.0,00.0,31.2,24.4,03.3,0000.0,0005.16,0003.09,0002.41
2023-02-23 06:04:00,,0815.9,5.02,0.00,22.7,23.2,00.0,31.3,24.5,03.3,0000.0,0005.20,0003.08,0002.38
2023-02-23 06:05:00,,0815.9,4.99,0.00,22.7,22.5,00.0,31.3,24.3,03.3,0000.0,0005.12,0003.06,0002.38
2023-02-23 06:06:00,,0815.8,5.00,0.00,22.6,21.8,00.0,31.3,24.2,03.3,0000.0,0005.02,0003.03,0002.37
2023-02-23 06:07:00,,0815.8,5.01,0.00,22.5,21.3,00.0,31.3,24.0,03.3,0000.0,0004.86,0002.97,0002.36
2023-02-23 06:08:00,,0815.8,5.00,0.00,22.5,20.9,00.0,31.3,23.9,03.3,0000.0,0004.81,0002.96,0002.36
2023-02-23 06:09:00,,0815.8,5.00,0.00,22.4,20.6,00.0,31.3,23.8,03.3,0000.0,0004.80,0002.97,0002.36
2023-02-23 06:10:00,,0815.9,5.00,0.00,22.4,21.0,00.0,31.2,23.8,03.3,0000.0,0004.49,0002.95,0002.37
2023-02-23 06:11:00,,0815.8,5.02,0.00,22.5,21.9,00.0,31.2,24.2,03.3,0000.0,0004.39,0002.99,0002.38
2023-02-23 06:12:00,,0815.7,5.01,0.00,22.6,22.9,00.0,31.2,24.4,03.3,0000.0,0004.37,0002.98,0002.38
2023-02-23 06:13:00,,0815.7,4.97,0.00,22.7,23.1,00.0,31.3,24.5,03.3,0000.0,0004.34,0002.95,0002.39
2023-02-23 06:14:00,,0815.7,4.97,0.00,22.7,22.4,00.0,31.3,24.3,03.3,0000.0,0004.32,0002.96,0002.38
2023-02-23 06:15:00,,0815.7,5.00,0.00,22.6,21.8,00.0,31.3,24.2,03.3,0000.0,0004.23,0002.94,0002.39
2023-02-23 06:16:00,,0815.7,4.99,0.00,22.5,21.3,00.0,31.3,24.0,03.3,0000.0,0004.33,0002.97,0002.40
2023-02-23 06:17:00,,0815.7,5.00,0.00,22.5,20.8,00.0,31.3,23.9,03.3,0000.0,0004.46,0003.01,0002.41
2023-02-23 06:18:00,,0815.7,5.01,0.00,22.4,20.5,00.0,31.3,23.7,03.3,0000.0,0004.54,0003.04,0002.42
2023-02-23 06:19:00,,0815.7,5.00,0.00,22.4,20.8,00.0,31.2,23.8,03.3,0000.0,0004.57,0003.05,0002.42
2023-02-23 06:20:00,,0815.7,4.99,0.00,22.4,21.9,00.0,31.2,24.1,03.3,0000.0,0004.45,0003.01,0002.42
2023-02-23 06:21:00,,0815.8,4.98,0.00,22.5,22.8,00.0,31.2,24.4,03.3,0000.0,0004.48,0003.02,0002.42
2023-02-23 06:22:00,,0815.7,5.01,0.00,22.6,23.2,00.0,31.2,24.5,03.3,0000.0,0004.55,0003.03,0002.42
2023-02-23 06:23:00,,0815.7,5.01,0.00,22.6,22.4,00.0,31.3,24.3,03.3,0000.0,0004.58,0003.01,0002.43
2023-02-23 06:24:00,,0815.8,4.97,0.00,22.6,21.7,00.0,31.3,24.1,03.3,0000.0,0004.62,0003.02,0002.43
2023-02-23 06:25:00,,0815.8,5.03,0.00,22.5,21.2,00.0,31.3,23.9,03.3,0000.0,0004.62,0003.00,0002.46
2023-02-23 06:26:00,,0815.8,4.99,0.00,22.4,20.8,00.0,31.2,23.8,03.3,0000.0,0004.80,0003.03,0002.48
2023-02-23 06:27:00,,0815.8,5.01,0.00,22.4,20.5,00.0,31.2,23.8,03.3,0000.0,0004.77,0003.00,0002.48
2023-02-23 06:28:00,,0815.9,4.99,0.00,22.4,21.4,00.0,31.2,24.0,03.3,0000.0,0004.65,0002.97,0002.49
2023-02-23 06:29:00,,0815.9,5.00,0.00,22.5,22.3,00.0,31.2,24.2,03.3,0000.0,0004.51,0002.92,0002.48
2023-02-23 06:30:00,,0815.8,5.03,0.00,22.6,23.1,00.0,31.2,24.4,03.3,0000.0,0004.49,0002.90,0002.47
2023-02-23 06:31:00,,0815.8,5.00,0.00,22.6,22.9,00.0,31.2,24.4,03.3,0000.0,0004.61,0002.96,0002.48
2023-02-23 06:32:00,,0815.9,4.99,0.00,22.6,22.2,00.0,31.3,24.3,03.3,0000.0,0004.57,0002.96,0002.49
2023-02-23 06:33:00,,0815.9,5.01,0.00,22.6,21.6,00.0,31.3,24.1,03.3,0000.0,0004.48,0002.93,0002.48
2023-02-23 06:34:00,,0816.0,5.00,0.00,22.5,21.2,00.0,31.3,23.9,03.3,0000.0,0004.35,0002.91,0002.46
2023-02-23 06:35:00,,0816.0,5.00,0.00,22.4,20.8,00.0,31.3,23.9,03.3,0000.0,0004.27,0002.88,0002.46
2023-02-23 06:36:00,,0816.0,5.01,0.00,22.4,20.6,00.0,31.2,23.8,03.3,0000.0,0004.16,0002.87,0002.44
2023-02-23 06:37:00,,0816.0,5.01,0.00,22.4,21.3,00.0,31.2,24.0,03.3,0000.0,0004.01,0002.85,0002.43
2023-02-23 06:38:00,,0816.0,4.99,0.00,22.5,22.4,00.0,31.2,24.3,03.3,0000.0,0004.03,0002.87,0002.42
2023-02-23 06:39:00,,0816.0,4.99,0.00,22.6,23.1,00.0,31.2,24.5,03.3,0000.0,0004.04,0002.86,0002.40
2023-02-23 06:40:00,,0816.0,5.02,0.00,22.7,22.9,00.0,31.2,24.5,03.3,0000.0,0005.15,0002.89,0002.40
2023-02-23 06:41:00,,0816.0,5.00,0.00,22.6,22.3,00.0,31.3,24.3,03.3,0000.0,0005.37,0002.93,0002.39
2023-02-23 06:42:00,,0816.0,5.01,0.00,22.6,21.7,00.0,31.3,24.1,03.3,0000.0,0005.45,0002.93,0002.39
2023-02-23 06:43:00,,0816.1,4.98,0.00,22.5,21.2,00.0,31.3,24.0,03.3,0000.0,0005.48,0002.90,0002.38
2023-02-23 06:44:00,,0816.0,5.01,0.00,22.4,20.8,00.0,31.3,23.8,03.3,0000.0,0005.84,0002.90,0002.38
2023-02-23 06:45:00,,0816.0,5.01,0.00,22.4,20.9,00.0,31.2,23.8,03.3,0000.0,0005.83,0002.91,0002.39
2023-02-23 06:46:00,,0816.1,4.99,0.00,22.5,21.9,00.0,31.2,24.1,03.3,0000.0,0005.76,0002.91,0002.39
2023-02-23 06:47:00,,0816.0,5.01,0.00,22.6,22.8,00.0,31.2,24.4,03.2,0000.0,0005.70,0002.88,0002.38
2023-02-23 06:48:00,,0816.1,4.96,0.00,22.7,23.2,00.0,31.3,24.6,03.2,0000.0,0005.70,0002.90,0002.38
2023-02-23 06:49:00,,0816.1,5.03,0.00,22.7,22.6,00.0,31.3,24.4,03.2,0000.0,0005.64,0002.89,0002.38
2023-02-23 06:50:00,,0816.1,5.00,0.00,22.7,22.0,00.0,31.3,24.3,03.2,0000.0,0005.69,0002.92,0002.40
2023-02-23 06:51:00,,0816.1,5.00,0.00,22.6,21.5,00.0,31.3,24.1,03.2,0000.0,0004.77,0002.93,0002.43
2023-02-23 06:52:00,,0816.1,5.00,0.00,22.5,21.0,00.0,31.3,23.9,03.2,0000.0,0004.90,0002.90,0002.45
2023-02-23 06:53:00,,0816.1,4.99,0.00,22.4,20.7,00.0,31.3,23.9,03.2,0000.0,0004.96,0002.94,0002.49
2023-02-23 06:54:00,,0816.3,5.01,0.00,22.5,21.3,00.0,31.3,24.0,03.2,0000.0,0005.06,0003.03,0002.57
2023-02-23 06:55:00,,0816.3,4.95,0.00,22.6,22.3,00.0,31.2,24.3,03.2,0000.0,0005.83,0003.10,0002.67
2023-02-23 06:56:00,,0816.3,5.02,0.00,22.7,23.1,00.0,31.3,24.5,03.2,0000.0,0006.03,0003.17,0002.77
2023-02-23 06:57:00,,0816.3,4.98,0.00,22.8,23.5,00.0,31.3,24.7,03.2,0000.0,0006.27,0003.24,0002.86
2023-02-23 06:58:00,,0816.3,4.97,0.00,22.8,22.9,00.0,31.3,24.5,03.1,0000.0,0006.50,0003.30,0002.94
2023-02-23 06:59:00,,0816.3,4.99,0.00,22.7,22.3,00.0,31.4,24.4,03.1,0000.3,0006.70,0003.34,0003.00
